Miscellaneous Local Product
Issued by NWS Hastings, NE

Home | Current Version | Previous Version | Text Only | Print | Product List | Glossary Off
Versions: 1 2 3 4 5 6 7 8 9 10 11 12 13 14 15 16 17 18 19 20 21 22 23 24 25 26 27 28 29 30 31 32 33 34 35 36 37 38 39 40 41 42 43 44 45 46 47 48 49 50

725
AXUS43 KGID 261202
MISGRI

GID CWA HOURLY WEATHER ROUNDUP
NATIONAL WEATHER SERVICE HASTINGS NE
700 AM CDT TUE JUL 26 2016

NOTE: "FAIR" INDICATES FEW OR NO CLOUDS BELOW 12,000 FEET WITH NO
SIGNIFICANT WEATHER AND/OR OBSTRUCTIONS TO VISIBILITY.

...SOUTH CENTRAL NEBRASKA...

CITY           SKY/WX    TMP DP  RH WIND       PRES   REMARKS
GRAND ISLAND   CLEAR     62  59  90 CALM      30.10S
HASTINGS       CLEAR     64  59  83 CALM      30.11R
KEARNEY        CLEAR     63  57  82 CALM      30.11S
ORD            CLEAR     62  59  90 E3        30.08S
YORK           CLEAR     61  59  94 CALM      30.10S
AURORA         CLEAR     58  58  99 CALM      30.10S
LEXINGTON      CLEAR     62  60  94 CALM      30.11S FOG
HOLDREGE       CLEAR     63  60  92 CALM      30.10S
HEBRON         CLEAR     59  58  96 CALM      30.09S

...NEBRASKA PANHANDLE...

CITY           SKY/WX    TMP DP  RH WIND       PRES   REMARKS
CHADRON        CLEAR     70  61  73 CALM      29.98F
ALLIANCE       CLEAR     63  62  97 S13       30.07R
SCOTTSBLUFF    CLEAR     63  61  93 SE9       30.05S
SIDNEY         CLEAR     64  63  96 S12       30.12S FOG

...WESTERN AND NORTH CENTRAL NEBRASKA...

CITY           SKY/WX    TMP DP  RH WIND       PRES   REMARKS
VALENTINE      CLEAR     69  63  81 S14       30.05S
AINSWORTH      CLEAR     65  62  87 S10       30.08S
ONEILL         CLEAR     65  62  88 S7        30.08R
BROKEN BOW     CLEAR     62  61  96 S3        30.11S
IMPERIAL       PTCLDY    66  64  93 S9        30.11S
NORTH PLATTE   CLEAR     65  64  97 SE5       30.11S
MCCOOK         CLEAR     64  62  93 S5        30.11R

...EASTERN NEBRASKA...

CITY           SKY/WX    TMP DP  RH WIND       PRES   REMARKS
NORFOLK        CLEAR     60  59  96 CALM      30.08S
SO SIOUX CITY  CLEAR     65  62  90 E5        30.07S
TEKAMAH        PTCLDY    61  59  93 CALM      30.08F
COLUMBUS       CLEAR     61  52  72 CALM      30.09F
ALBION         CLEAR     60  58  91 SE3       30.09F
OMAHA EPPLEY   CLEAR     67  64  90 CALM      30.08F
MILLARD        CLEAR     66  65  96 CALM      30.09S FOG
LINCOLN        CLEAR     63  61  93 CALM      30.09S
NEBRASKA CITY  FOG       66  66 100 CALM      30.10R VSB 1/4
BEATRICE       CLEAR     62  61  94 CALM      30.09S
FALLS CITY     PTCLDY    68  65  90 CALM      30.07S

...NORTHERN KANSAS...

CITY           SKY/WX    TMP DP  RH WIND       PRES   REMARKS
GOODLAND       CLOUDY    67  65  93 S14       30.13F
HILL CITY      FOG       64  64 100 CALM      30.10S VSB<1/4
NORTON         MOSUNNY   64  63  94 CALM      30.10R FOG
SMITH CENTER   CLEAR     63  61  94 E6        30.10R
BELOIT         CLEAR     63  63 100 CALM      30.07S
HAYS           CLOUDY    70  61  73 SE6       30.10R
RUSSELL        CLOUDY    67  67 100 E7        30.08R
CONCORDIA      CLEAR     62  61  96 CALM      30.08S
SALINA         CLEAR     69  67  93 CALM      30.08R
TOPEKA         PTCLDY    68  66  93 CALM      30.07R



USA.gov is the U.S. government's official web portal to all federal, state and local government web resources and services.